1498251601.23,37944,18.75,73910.8,3.17,2.81,2.81,0,*75
1498251602.41,37945,18.75,73912.8,3.17,2.91,2.91,0,*74
1498251603.65,37946,18.75,73908.8,3.15,2.89,2.89,0,*75
1498251604.9,37947,18.75,73912.0,3.15,2.89,2.89,0,*74
1498251606.1,37948,18.75,73924.3,3.17,2.85,2.91,0,*7C
1498251607.28,37949,18.75,73920.8,3.17,2.91,2.91,0,*78
1498251608.48,37950,18.75,73924.8,3.17,2.89,2.99,0,*71
1498251609.73,37951,18.75,73920.3,3.19,2.85,2.89,0,*73
1498251610.97,37952,18.75,73916.3,3.19,2.85,2.85,0,*7C
1498251612.19,37953,18.75,73920.3,3.21,2.73,2.77,0,*72
1498251613.4,37954,18.75,73922.3,3.21,2.65,2.73,0,*76
1498251614.66,37955,18.75,73916.5,3.19,2.51,2.51,0,*7B
1498251615.91,37956,18.75,73912.5,3.19,2.47,2.47,0,*78
1498251617.16,37957,18.75,73912.3,3.19,2.47,2.55,0,*7A
1498251618.42,37958,18.75,73904.8,3.19,2.51,2.51,0,*76
1498251619.67,37959,18.75,73910.3,3.19,2.51,2.51,0,*77
1498251620.91,37960,18.75,73910.3,3.21,2.51,2.51,0,*76
1498251622.13,37961,18.75,73910.8,3.25,2.59,2.69,0,*70
1498251623.34,37962,18.75,73916.3,3.21,2.65,2.73,0,*73
1498251624.56,37963,18.75,73920.5,3.21,2.77,2.73,0,*71
1498251625.79,37964,18.75,73916.0,3.21,2.77,2.73,0,*76
1498251626.99,37965,18.75,73920.0,3.25,2.65,2.69,0,*7B
1498251628.22,37966,18.75,73914.3,3.21,2.51,2.51,0,*70
1498251629.45,37967,18.75,73918.0,3.21,2.55,2.55,0,*71
1498251630.63,37968,18.75,73922.8,3.21,2.61,2.61,0,*7E
1498251631.82,37969,18.75,73928.3,3.21,2.65,2.61,0,*7B
1498251633.04,37970,18.75,73920.8,3.21,2.55,2.55,0,*77
1498251634.27,37971,18.75,73900.3,3.21,2.55,2.51,0,*72
1498251635.47,37972,18.75,73904.0,3.21,2.73,2.61,0,*76
1498251636.69,37973,18.75,73910.3,3.25,2.77,2.69,0,*7F
1498251637.87,37974,18.75,73914.5,3.25,2.65,2.65,0,*77
1498251639.05,37975,18.75,73908.8,3.25,2.65,2.65,0,*76
1498251640.27,37976,18.75,73916.0,3.25,2.55,2.55,0,*75
1498251641.49,37977,18.75,73904.5,3.25,2.55,2.55,0,*74
1498251642.71,37978,18.75,73908.3,3.25,2.55,2.55,0,*7B
1498251643.93,37979,18.75,73904.8,3.25,2.55,2.55,0,*7A
1498251645.16,37980,18.75,73912.3,3.25,2.59,2.59,0,*7C
1498251646.39,37981,18.75,73908.3,3.25,2.59,2.59,0,*7D
1498251647.57,37982,18.75,73906.3,3.25,2.65,2.65,0,*7E
1498251648.78,37983,18.75,73920.3,3.25,2.69,2.69,0,*7F
1498251650.01,37984,18.75,73926.0,3.25,2.69,2.81,0,*7E
1498251651.24,37985,18.75,73914.5,3.25,2.77,2.81,0,*70
1498251652.47,37986,18.75,73898.0,3.29,2.81,2.81,0,*76
1498251653.72,37987,18.75,73898.0,3.27,2.69,2.77,0,*76
1498251654.97,37988,18.75,73904.5,3.27,2.77,2.81,0,*7F
1498251656.2,37989,18.75,73908.0,3.29,2.85,2.81,0,*7D
1498251657.45,37990,18.75,73904.5,3.27,2.77,2.81,0,*76
1498251658.68,37991,18.75,73904.5,3.29,2.73,2.81,0,*7D
1498251659.93,37992,18.75,73896.3,3.27,2.77,2.77,0,*7D
1498251661.17,37993,18.75,73906.0,3.27,2.69,2.69,0,*7C
1498251662.42,37994,18.75,73904.3,3.27,2.69,2.69,0,*7B
1498251663.62,37995,18.75,73898.5,3.27,2.65,2.65,0,*7A
1498251664.83,37996,18.75,73888.0,3.29,2.65,2.69,0,*7B
1498251666.08,37997,18.75,73896.5,3.27,2.77,2.77,0,*78
1498251667.29,37998,18.75,73892.5,3.29,2.59,2.61,0,*72
1498251668.52,37999,18.75,73898.5,3.29,2.43,2.43,0,*78
1498251669.78,38000,18.75,73900.3,3.27,2.39,2.39,0,*70
1498251671.03,38001,18.75,73894.5,3.27,2.51,2.55,0,*75
1498251672.25,38002,18.75,73902.5,3.29,2.55,2.55,0,*7C
1498251673.51,38003,18.75,73904.0,3.27,2.43,2.43,0,*73
1498251674.76,38004,18.75,73900.5,3.27,2.51,2.39,0,*7A
1498251676.01,38005,18.75,73906.5,3.27,2.43,2.43,0,*75
1498251677.27,38006,18.75,73898.0,3.27,2.43,2.43,0,*76
1498251678.52,38007,18.75,73910.0,3.27,2.51,2.51,0,*77
1498251679.78,38008,18.75,73914.8,3.27,2.43,2.51,0,*7B
1498251681.03,38009,18.75,73908.3,3.27,2.43,2.51,0,*7A
1498251682.29,38010,18.75,73910.0,3.27,2.39,2.39,0,*71
1498251683.54,38011,18.75,73910.8,3.27,2.51,2.51,0,*70
1498251684.79,38012,18.75,73906.5,3.27,2.51,2.55,0,*77
1498251686.05,38013,18.75,73904.0,3.27,2.43,2.43,0,*72
1498251687.27,38014,18.75,73912.0,3.29,2.55,2.55,0,*7B
1498251688.52,38015,18.75,73908.8,3.27,2.51,2.55,0,*70
1498251689.77,38016,18.75,73910.3,3.27,2.51,2.55,0,*73
1498251691.02,38017,18.75,73908.0,3.27,2.55,2.59,0,*7A
1498251692.27,38018,18.75,73910.0,3.27,2.55,2.59,0,*75
1498251693.52,38019,18.75,73908.0,3.27,2.55,2.59,0,*74
1498251694.77,38020,18.75,73906.3,3.27,2.59,2.59,0,*72
1498251696.02,38021,18.75,73904.3,3.27,2.59,2.59,0,*73
1498251697.28,38022,18.75,73908.5,3.27,2.59,2.59,0,*70
1498251698.52,38023,18.75,73910.3,3.27,2.69,2.69,0,*71
1498251699.76,38024,18.75,73914.8,3.29,2.81,2.81,0,*78
1498251700.98,38025,18.75,73914.5,3.29,2.81,2.85,0,*7D
1498251702.22,38026,18.75,73910.3,3.29,2.81,2.81,0,*7A
1498251703.47,38027,18.75,73912.5,3.27,2.77,2.81,0,*7C
1498251704.71,38028,18.75,73918.3,3.29,2.81,2.81,0,*74
1498251705.93,38029,18.69,73916.3,3.29,2.85,2.85,0,*75
1498251707.16,38030,18.75,73918.3,3.29,2.85,2.81,0,*79
1498251708.42,38031,18.75,73920.5,3.31,2.81,2.81,0,*75
1498251709.64,38032,18.75,73924.5,3.29,2.85,2.85,0,*7F
1498251710.84,38033,18.75,73924.5,3.29,2.81,2.91,0,*7F
1498251712.09,38034,18.75,73920.5,3.31,2.81,2.85,0,*74
1498251713.34,38035,18.75,73924.0,3.33,2.85,2.85,0,*73
1498251714.6,38036,18.75,73930.3,3.33,2.89,2.89,0,*70
1498251715.85,38037,18.75,73924.5,3.31,2.81,2.85,0,*77
1498251717.1,38038,18.75,73920.0,3.31,2.81,2.85,0,*78
1498251718.35,38039,18.75,73920.3,3.31,2.85,2.85,0,*7D
1498251719.6,38040,18.75,73918.3,3.33,2.85,2.85,0,*71
1498251720.85,38041,18.69,73920.0,3.33,2.85,2.73,0,*79
1498251722.11,38042,18.75,73930.3,3.33,2.85,2.89,0,*7F
1498251723.36,38043,18.75,73922.0,3.31,2.81,2.85,0,*74
1498251724.61,38044,18.69,73914.0,3.33,2.85,2.85,0,*75
1498251725.86,38045,18.75,73918.3,3.33,2.85,2.85,0,*74
1498251727.11,38046,18.75,73922.3,3.33,2.73,2.85,0,*7E
1498251728.36,38047,18.75,73920.3,3.31,2.69,2.73,0,*7F
1498251729.55,38048,18.75,73916.5,3.35,2.65,2.65,0,*7F
1498251730.82,38049,18.75,73930.5,3.33,2.51,2.51,0,*78
1498251732.08,38050,18.75,73928.3,3.33,2.59,2.51,0,*78
1498251733.34,38051,18.75,73924.5,3.33,2.39,2.39,0,*71
1498251734.6,38052,18.75,73930.3,3.33,1.93,1.93,0,*72
1498251735.85,38053,18.75,73930.8,3.31,1.97,2.01,0,*7D
1498251737.1,38054,18.75,73930.0,3.31,1.97,1.97,0,*76
1498251738.31,38055,18.75,73918.8,3.29,1.89,1.89,0,*7E
1498251739.54,38056,18.75,73918.0,3.29,1.97,1.89,0,*72
1498251740.79,38057,18.75,73918.3,3.27,1.85,1.97,0,*71
1498251742.01,38058,18.69,73906.8,3.29,1.85,1.89,0,*7F
1498251743.27,38059,18.75,73904.0,3.27,1.85,1.85,0,*7C
1498251744.52,38060,18.75,73910.0,3.27,1.97,1.97,0,*76
1498251745.74,38061,18.75,73916.5,3.29,1.89,1.89,0,*79
1498251746.98,38062,18.75,73908.8,3.27,1.67,1.67,0,*74
1498251748.2,38063,18.69,73912.8,3.21,1.67,1.55,0,*72
1498251749.38,38064,18.75,73922.5,3.21,1.79,1.79,0,*74
1498251750.58,38065,18.75,73896.0,3.21,1.83,1.89,0,*7F
1498251751.79,38066,18.69,73898.5,3.21,1.89,1.89,0,*76
1498251753.02,38067,18.75,73898.0,3.21,2.13,2.01,0,*74
1498251754.25,38068,18.75,73890.0,3.21,2.17,2.25,0,*79
1498251755.45,38069,18.75,73894.3,3.21,2.35,2.25,0,*78
1498251756.65,38070,18.75,73906.3,3.25,2.31,2.39,0,*7D
1498251757.88,38071,18.75,73910.0,3.19,2.27,2.25,0,*79
1498251759.14,38072,18.75,73906.0,3.19,2.17,2.17,0,*78
1498251760.39,38073,18.75,73908.8,3.19,2.17,2.25,0,*78
1498251761.65,38074,18.75,73916.0,3.19,2.17,2.17,0,*7E
1498251762.91,38075,18.75,73914.0,3.19,2.17,2.17,0,*7F
1498251764.16,38076,18.75,73920.8,3.19,2.05,2.05,0,*7C
1498251765.39,38077,18.75,73912.8,3.19,1.71,1.79,0,*75
1498251766.57,38078,18.69,73916.3,3.17,1.79,1.79,0,*7C
1498251767.82,38079,18.75,73914.5,3.19,2.01,2.01,0,*73
1498251769.04,38080,18.75,73910.0,3.17,1.89,1.85,0,*77
1498251770.27,38081,18.75,73908.8,3.17,2.13,2.13,0,*7A
1498251771.5,38082,18.75,73908.3,3.17,2.25,2.25,0,*79
1498251772.73,38083,18.75,73906.5,3.17,2.43,2.43,0,*78
1498251773.96,38084,18.75,73902.0,3.17,2.47,2.43,0,*7B
1498251775.2,38085,18.75,73908.3,3.19,2.55,2.55,0,*70
1498251776.43,38086,18.75,73918.8,3.17,2.47,2.47,0,*7D
1498251777.69,38087,18.75,73924.0,3.19,2.51,2.51,0,*72
1498251778.86,38088,18.75,73918.3,3.17,2.31,2.31,0,*73
1498251780.09,38089,18.75,73920.5,3.17,2.25,2.25,0,*72
1498251781.31,38090,18.75,73916.3,3.17,2.13,2.09,0,*71
1498251782.53,38091,18.75,73916.8,3.17,1.89,1.89,0,*7B
1498251783.73,38092,18.75,73918.8,3.17,1.89,1.79,0,*77
1498251784.91,38093,18.75,73920.3,3.17,1.79,1.79,0,*79
1498251786.13,38094,18.69,73908.8,3.17,1.47,1.51,0,*79
1498251787.33,38095,18.69,73916.0,3.17,1.75,1.67,0,*7C
1498251788.53,38096,18.75,73928.3,3.13,1.83,1.71,0,*75
1498251789.77,38097,18.75,73928.0,3.15,1.63,1.59,0,*76
1498251790.94,38098,18.75,73930.3,3.13,0.97,0.97,0,*76
1498251792.1,38099,18.75,73926.3,3.13,0.97,0.97,0,*77
1498251793.32,38100,18.75,73920.3,3.11,1.05,0.95,0,*4C
1498251794.55,38101,18.75,73926.0,3.11,1.05,1.09,0,*79
1498251795.75,38102,18.75,73926.3,3.09,1.09,1.05,0,*73
1498251797.0,38103,18.75,73926.5,3.07,0.95,0.91,0,*74
1498251798.24,38104,18.69,73920.5,3.05,1.37,1.37,0,*75
1498251799.44,38105,18.75,73920.0,3.05,1.41,1.47,0,*72
1498251800.67,38106,18.69,73924.5,3.07,1.13,1.05,0,*72
1498251801.89,38107,18.75,73926.8,3.05,1.13,1.05,0,*71
1498251803.08,38108,18.75,73922.5,3.01,0.97,0.95,0,*7F
1498251804.34,38109,18.75,73926.3,2.97,1.17,1.09,0,*7D
1498251805.54,38110,18.75,73928.5,2.97,1.05,1.05,0,*7A
1498251806.78,38111,18.75,73924.8,3.01,1.33,1.29,0,*7E
1498251808.03,38112,18.75,73932.3,2.97,1.55,1.59,0,*74
1498251809.24,38113,18.75,73928.8,2.97,1.79,1.79,0,*79
1498251810.45,38114,18.69,73914.3,2.95,1.89,1.89,0,*7C
1498251811.7,38115,18.75,73914.3,2.97,1.71,1.71,0,*7F
1498251812.91,38116,18.75,73920.3,2.97,1.79,1.79,0,*7C
1498251814.16,38117,18.75,73920.8,2.97,1.89,1.93,0,*76
1498251815.41,38118,18.75,73922.0,2.97,2.01,2.01,0,*72
1498251816.64,38119,18.75,73922.5,3.01,2.05,2.13,0,*7A
1498251817.87,38120,18.75,73916.0,3.01,2.13,2.13,0,*77
1498251819.11,38121,18.75,73922.5,3.01,2.17,2.13,0,*72
1498251820.36,38122,18.75,73920.3,2.97,1.55,1.47,0,*78
1498251821.55,38123,18.75,73920.0,3.01,1.47,1.41,0,*72
1498251822.8,38124,18.69,73914.0,2.97,1.67,1.67,0,*7D
1498251824.05,38125,18.69,73922.0,2.97,1.89,1.89,0,*7C
1498251825.31,38126,18.75,73922.5,2.97,2.13,2.13,0,*7F
1498251826.54,38127,18.75,73924.8,3.01,2.25,2.17,0,*71
1498251827.71,38128,18.75,73928.3,3.01,2.31,2.31,0,*7F
1498251828.94,38129,18.69,73918.0,3.01,2.51,2.51,0,*7E
1498251830.15,38130,18.75,73916.5,3.01,2.55,2.61,0,*71
1498251831.36,38131,18.75,73924.5,3.05,2.69,2.61,0,*7B
1498251832.62,38132,18.75,73926.3,3.07,2.51,2.59,0,*7A
1498251833.85,38133,18.75,73922.5,3.05,2.59,2.51,0,*79
1498251835.09,38134,18.69,73922.0,3.05,2.51,2.47,0,*71
1498251836.34,38135,18.75,73920.3,3.07,2.39,2.47,0,*7C
1498251837.52,38136,18.75,73920.3,3.05,2.35,2.35,0,*74
1498251838.75,38137,18.75,73926.0,3.07,2.39,2.35,0,*7B
1498251839.97,38138,18.69,73926.0,3.07,2.39,2.35,0,*74
1498251841.15,38139,18.75,73926.0,3.05,2.35,2.35,0,*7B
1498251842.38,38140,18.75,73932.5,3.05,2.39,2.39,0,*75
1498251843.64,38141,18.75,73930.5,3.07,2.47,2.47,0,*76
1498251844.82,38142,18.75,73928.8,3.09,2.65,2.61,0,*7F
1498251846.05,38143,18.75,73924.5,3.09,2.77,2.77,0,*7A
1498251847.29,38144,18.69,73922.0,3.11,2.73,2.73,0,*74
1498251848.51,38145,18.75,73934.8,3.09,2.73,2.77,0,*78
1498251849.76,38146,18.75,73932.5,3.11,2.73,2.77,0,*72
1498251851.01,38147,18.69,73928.8,3.11,2.77,2.73,0,*73
1498251852.25,38148,18.75,73912.0,3.11,2.73,2.77,0,*7C
1498251853.5,38149,18.75,73918.8,3.11,2.73,2.73,0,*79
1498251854.7,38150,18.69,73906.8,3.11,2.61,2.61,0,*71
1498251855.89,38151,18.75,73902.0,3.13,2.65,2.65,0,*72
1498251857.13,38152,18.75,73908.5,3.15,2.69,2.69,0,*77
1498251858.37,38153,18.69,73910.5,3.15,2.69,2.77,0,*79
1498251859.63,38154,18.75,73922.3,3.15,2.81,2.81,0,*71
1498251860.86,38155,18.75,73922.8,3.13,2.81,2.81,0,*76
1498251862.11,38156,18.75,73928.3,3.15,2.81,2.77,0,*7A
1498251863.34,38157,18.75,73932.0,3.17,2.81,2.81,0,*70
1498251864.6,38158,18.69,73938.0,3.15,2.81,2.81,0,*7D
1498251865.84,38159,18.75,73930.5,3.15,2.77,2.89,0,*7D
1498251867.07,38160,18.75,73924.0,3.17,2.69,2.69,0,*74
1498251868.29,38161,18.75,73916.3,3.17,2.73,2.69,0,*7E
1498251869.51,38162,18.69,73916.3,3.17,2.73,2.73,0,*76
1498251870.73,38163,18.69,73928.5,3.17,2.73,2.73,0,*77
1498251871.95,38164,18.75,73928.0,3.17,2.69,2.69,0,*70
1498251873.16,38165,18.75,73934.8,3.19,2.65,2.65,0,*7F
1498251874.38,38166,18.75,73926.3,3.19,2.61,2.55,0,*7B
1498251875.64,38167,18.75,73922.5,3.19,2.51,2.51,0,*7D
1498251876.89,38168,18.75,73928.0,3.19,2.39,2.39,0,*72
1498251878.12,38169,18.75,73924.5,3.17,2.25,2.25,0,*7D
1498251879.37,38170,18.69,73918.0,3.19,2.47,2.47,0,*7B
1498251880.6,38171,18.69,73914.5,3.17,2.47,2.47,0,*74
1498251881.8,38172,18.69,73918.0,3.19,2.65,2.65,0,*79
1498251883.01,38173,18.69,73928.0,3.19,2.65,2.65,0,*78
1498251884.26,38174,18.75,73920.8,3.19,2.77,2.73,0,*7B
1498251885.51,38175,18.69,73916.0,3.19,2.73,2.77,0,*7A
1498251886.73,38176,18.75,73920.3,3.21,2.77,2.73,0,*72
1498251887.96,38177,18.69,73920.3,3.21,2.77,2.77,0,*77
1498251889.2,38178,18.75,73920.5,3.19,2.73,2.77,0,*77
1498251890.43,38179,18.75,73912.8,3.21,2.73,2.73,0,*79
1498251891.65,38180,18.69,73906.5,3.19,2.73,2.65,0,*73
1498251892.86,38181,18.75,73920.5,3.19,2.65,2.65,0,*75
1498251894.08,38182,18.75,73924.3,3.21,2.77,2.73,0,*79
1498251895.31,38183,18.75,73920.0,3.21,2.85,2.89,0,*70
1498251896.51,38184,18.75,73914.0,3.25,2.91,2.89,0,*76
1498251897.74,38185,18.69,73916.3,3.25,2.89,2.89,0,*7E
1498251898.91,38186,18.69,73920.3,3.25,2.91,2.91,0,*7D
1498251900.11,38187,18.75,73918.5,3.27,2.91,2.91,0,*7E
1498251901.29,38188,18.75,73916.8,3.21,2.95,2.95,0,*77
1498251902.52,38189,18.75,73922.5,3.25,3.03,3.03,0,*72
1498251903.75,38190,18.75,73920.5,3.25,3.03,3.03,0,*7A
1498251905.01,38191,18.75,73924.8,3.27,3.15,3.15,0,*79
1498251906.26,38192,18.69,73922.5,3.27,3.11,3.15,0,*7E
1498251907.52,38193,18.75,73922.3,3.27,3.11,3.15,0,*7F
1498251908.75,38194,18.75,73924.0,3.29,3.03,3.15,0,*75
1498251910.0,38195,18.75,73928.5,3.27,2.89,2.89,0,*7D
1498251911.26,38196,18.69,73910.8,3.27,2.43,2.39,0,*73
1498251912.47,38197,18.75,73922.3,3.29,1.89,1.89,0,*71
1498251913.72,38198,18.69,73926.3,3.27,1.59,1.55,0,*7C
1498251914.96,38199,18.69,73928.8,3.27,1.59,1.59,0,*71
1498251916.18,38200,18.75,73928.3,3.21,1.71,1.67,0,*73
1498251917.4,38201,18.75,73926.0,3.25,1.59,1.59,0,*71
1498251918.62,38202,18.75,73928.5,3.21,1.43,1.43,0,*76
1498251919.8,38203,18.75,73934.8,3.21,1.79,1.79,0,*77
1498251921.02,38204,18.69,73932.8,3.21,1.71,1.67,0,*77
1498251922.2,38205,18.75,73934.3,3.17,1.75,1.75,0,*74
1498251923.38,38206,18.69,73934.5,3.17,1.75,1.75,0,*77
1498251924.59,38207,18.75,73938.3,3.17,1.85,1.75,0,*79
1498251925.81,38208,18.75,73936.8,3.17,2.01,1.97,0,*75
1498251927.04,38209,18.75,73932.8,3.17,2.13,2.09,0,*73
1498251928.25,38210,18.75,73934.8,3.17,2.21,2.21,0,*70
1498251929.43,38211,18.69,73936.3,3.17,2.31,2.31,0,*71
1498251930.6,38212,18.69,73928.0,3.17,2.35,2.31,0,*76
1498251931.8,38213,18.69,73930.5,3.17,2.35,2.47,0,*76
1498251933.03,38214,18.75,73934.0,3.17,2.47,2.51,0,*73
1498251934.26,38215,18.69,73936.5,3.17,2.59,2.59,0,*75
1498251935.49,38216,18.75,73936.8,3.17,2.47,2.51,0,*71
1498251936.72,38217,18.75,73936.3,3.17,2.47,2.43,0,*73
1498251937.9,38218,18.69,73934.8,3.17,2.31,2.31,0,*78
1498251939.09,38219,18.69,73936.5,3.17,2.25,2.31,0,*7C
1498251940.34,38220,18.69,73936.8,3.19,2.47,2.47,0,*7D
1498251941.57,38221,18.75,73938.0,3.17,2.47,2.47,0,*72
1498251942.8,38222,18.69,73930.8,3.17,2.51,2.51,0,*71
1498251944.03,38223,18.69,73932.8,3.17,2.47,2.47,0,*70
1498251945.27,38224,18.75,73936.8,3.17,2.51,2.51,0,*77
1498251946.5,38225,18.69,73938.0,3.17,2.47,2.51,0,*71
1498251947.73,38226,18.75,73936.0,3.17,2.47,2.47,0,*75
1498251948.96,38227,18.69,73928.8,3.17,2.47,2.47,0,*74
1498251950.19,38228,18.75,73932.0,3.19,2.51,2.61,0,*76
1498251951.4,38229,18.69,73938.8,3.17,2.59,2.61,0,*71
1498251952.58,38230,18.75,73932.8,3.21,2.61,2.61,0,*77
1498251953.83,38231,18.75,73924.8,3.19,2.51,2.55,0,*79
1498251955.08,38232,18.69,73930.3,3.19,2.55,2.55,0,*7E
1498251956.28,38233,18.69,73930.0,3.19,2.61,2.61,0,*7F
1498251957.53,38234,18.69,73932.5,3.19,2.77,2.77,0,*78
1498251958.76,38235,18.69,73932.5,3.17,2.73,2.73,0,*77
1498251959.98,38236,18.69,73938.3,3.19,2.89,2.95,0,*77
1498251961.2,38237,18.75,73940.5,3.21,2.85,2.85,0,*70
1498251962.4,38238,18.75,73936.8,3.21,2.89,2.95,0,*72
1498251963.62,38239,18.69,73930.5,3.21,2.89,2.89,0,*7E
1498251964.82,38240,18.75,73930.0,3.25,2.89,2.91,0,*7D
1498251966.04,38241,18.75,73936.8,3.21,2.85,2.85,0,*71
1498251967.26,38242,18.69,73930.0,3.25,2.89,2.89,0,*76
1498251968.49,38243,18.69,73928.5,3.25,2.81,2.81,0,*77
1498251969.72,38244,18.75,73934.5,3.25,2.81,2.89,0,*78
1498251970.95,38245,18.75,73934.5,3.27,2.91,2.89,0,*7A
1498251972.2,38246,18.75,73934.8,3.27,2.89,2.81,0,*78
1498251973.45,38247,18.69,73938.3,3.27,2.89,2.89,0,*71
1498251974.71,38248,18.75,73934.0,3.27,2.81,2.77,0,*77
1498251975.93,38249,18.69,73932.3,3.25,2.81,2.81,0,*7D
1498251977.12,38250,18.69,73932.5,3.29,2.91,2.91,0,*79
1498251978.35,38251,18.69,73926.8,3.27,2.91,2.89,0,*7F
1498251979.54,38252,18.69,73916.0,3.27,2.91,2.91,0,*75
1498251980.75,38253,18.69,73912.3,3.27,2.91,2.99,0,*7C
1498251981.95,38254,18.69,73914.8,3.29,2.91,3.03,0,*77
1498251983.18,38255,18.69,73904.3,3.27,2.95,3.03,0,*7C
1498251984.39,38256,18.69,73918.8,3.29,2.95,3.03,0,*71
1498251985.57,38257,18.75,73936.8,3.29,2.91,2.95,0,*7A
1498251986.74,38258,18.69,73948.0,3.29,2.95,2.95,0,*71
1498251987.95,38259,18.69,73936.8,3.29,3.03,2.95,0,*7E
1498251989.18,38260,18.69,73916.5,3.29,3.03,3.03,0,*7A
1498251990.41,38261,18.75,73930.8,3.31,2.91,3.03,0,*78
1498251991.62,38262,18.69,73926.0,3.29,2.95,3.07,0,*72
1498251992.82,38263,18.69,73914.3,3.31,2.95,2.95,0,*70
1498251994.02,38264,18.69,73924.0,3.31,2.91,2.95,0,*73
1498251995.22,38265,18.75,73932.0,3.31,2.95,2.95,0,*76
1498251996.47,38266,18.69,73932.8,3.31,3.03,3.03,0,*75
1498251997.67,38267,18.75,73934.8,3.31,2.95,2.95,0,*74
1498251998.87,38268,18.75,73932.3,3.31,2.95,2.91,0,*7F
1498252000.07,38269,18.69,73930.8,3.31,2.95,2.99,0,*76
1498252001.27,38270,18.69,73934.0,3.33,2.99,2.99,0,*70
1498252002.48,38271,18.69,73936.5,3.33,2.99,2.99,0,*71
1498252003.71,38272,18.69,73942.0,3.33,2.99,3.07,0,*74
1498252004.98,38273,18.69,73936.8,3.33,3.07,3.07,0,*73
1498252006.23,38274,18.69,73938.3,3.31,3.07,3.07,0,*76
1498252007.47,38275,18.69,73934.3,3.35,3.15,3.23,0,*76
1498252008.7,38276,18.75,73936.0,3.35,3.11,3.15,0,*74
1498252009.94,38277,18.75,73940.3,3.35,3.11,3.15,0,*75
1498252011.18,38278,18.69,73936.3,3.35,3.15,3.15,0,*7E
1498252012.42,38279,18.75,73932.3,3.35,3.03,3.03,0,*7F
1498252013.65,38280,18.75,73932.5,3.37,2.99,3.03,0,*79
1498252014.91,38281,18.75,73936.0,3.37,3.11,3.15,0,*7E
1498252016.15,38282,18.75,73938.8,3.35,3.03,3.11,0,*78
1498252017.41,38283,18.69,73936.5,3.37,3.15,3.15,0,*78
1498252018.67,38284,18.69,73930.0,3.37,3.11,3.15,0,*7B
1498252019.93,38285,18.69,73928.3,3.37,3.11,3.15,0,*7A
1498252021.19,38286,18.75,73930.0,3.37,3.15,3.11,0,*79
1498252022.46,38287,18.69,73930.0,3.37,3.11,3.15,0,*78
1498252023.71,38288,18.69,73924.0,3.37,3.11,3.11,0,*73
1498252024.98,38289,18.69,73926.5,3.37,3.15,3.11,0,*76
1498252026.2,38290,18.69,73936.3,3.39,3.19,3.19,0,*74
1498252027.45,38291,18.75,73950.5,3.41,3.19,3.19,0,*7A
1498252028.65,38292,18.75,73962.8,3.39,3.19,3.25,0,*79
1498252029.91,38293,18.69,73942.8,3.41,3.15,3.15,0,*78
1498252031.15,38294,18.69,73932.8,3.39,3.03,3.07,0,*74
1498252032.35,38295,18.69,73928.5,3.41,2.91,2.95,0,*7A
1498252033.56,38296,18.75,73932.0,3.41,2.95,2.95,0,*7D
1498252034.79,38297,18.75,73934.8,3.41,2.95,3.03,0,*72
1498252036.0,38298,18.69,73932.0,3.41,2.95,2.95,0,*73
1498252037.2,38299,18.75,73932.3,3.41,2.95,2.95,0,*72
1498252038.44,38300,18.69,73930.8,3.41,2.95,3.03,0,*7D
1498252039.7,38301,18.75,73942.5,3.41,3.03,3.03,0,*72
1498252040.96,38302,18.75,73942.8,3.41,3.03,3.07,0,*75
1498252042.17,38303,18.75,73940.0,3.39,2.95,3.03,0,*71
1498252043.43,38304,18.69,73940.8,3.41,3.03,3.03,0,*77
1498252044.69,38305,18.69,73948.5,3.41,3.03,3.07,0,*72
1498252045.95,38306,18.69,73946.8,3.41,3.07,3.03,0,*71
1498252047.16,38307,18.69,73946.0,3.41,2.91,2.91,0,*74
1498252048.34,38308,18.69,73938.3,3.43,2.95,2.99,0,*75
1498252049.6,38309,18.69,73946.8,3.41,3.03,3.07,0,*7E
1498252050.83,38310,18.69,73954.8,3.41,2.65,2.69,0,*7E
1498252052.04,38311,18.69,73954.5,3.41,2.91,2.95,0,*77
1498252053.22,38312,18.69,73948.0,3.43,2.95,2.99,0,*7E
1498252054.42,38313,18.69,73940.5,3.43,2.89,2.95,0,*7E
1498252055.59,38314,18.69,73934.5,3.43,2.95,2.99,0,*78
1498252056.79,38315,18.69,73926.5,3.43,2.89,2.95,0,*78
1498252058.02,38316,18.69,73914.0,3.43,2.89,2.89,0,*76
1498252059.23,38317,18.69,73910.5,3.41,2.91,2.91,0,*75
1498252060.44,38318,18.75,73908.5,3.41,2.95,2.95,0,*7A
1498252061.67,38319,18.69,73908.0,3.41,3.03,2.95,0,*75
1498252062.88,38320,18.69,73914.3,3.43,3.07,2.99,0,*75
1498252064.06,38321,18.75,73920.5,3.43,2.95,2.99,0,*7E
1498252065.26,38322,18.75,73914.8,3.43,2.99,3.07,0,*77
1498252066.49,38323,18.75,73912.3,3.43,3.07,3.11,0,*77
1498252067.73,38324,18.69,73908.0,3.43,3.07,3.07,0,*77
1498252068.99,38325,18.69,73918.3,3.45,3.07,3.07,0,*70
1498252070.22,38326,18.69,73922.8,3.43,3.07,3.07,0,*75
1498252071.46,38327,18.69,73922.0,3.43,3.07,3.11,0,*73
1498252072.69,38328,18.69,73912.8,3.43,3.07,3.07,0,*7B
1498252073.92,38329,18.69,73908.5,3.43,3.07,3.07,0,*7A
1498252075.13,38330,18.69,73908.8,3.43,3.11,2.99,0,*73
1498252076.36,38331,18.69,73906.5,3.45,2.99,3.07,0,*73
1498252077.62,38332,18.69,73914.3,3.45,3.07,3.07,0,*76
1498252078.85,38333,18.69,73914.8,3.45,3.07,2.99,0,*71
1498252080.11,38334,18.69,73912.0,3.45,3.07,3.07,0,*70
1498252081.38,38335,18.69,73920.0,3.45,3.07,3.11,0,*76
1498252082.64,38336,18.69,73924.5,3.45,3.07,3.07,0,*72
1498252083.87,38337,18.69,73912.8,3.45,3.11,2.99,0,*72
1498252085.1,38338,18.75,73916.8,3.45,2.99,3.07,0,*7A
1498252086.27,38339,18.69,73930.3,3.43,2.95,2.99,0,*77
1498252087.51,38340,18.69,73928.3,3.45,3.07,2.95,0,*79
1498252088.71,38341,18.69,73918.0,3.45,2.95,2.95,0,*72
1498252089.94,38342,18.69,73922.8,3.43,2.85,2.77,0,*7A
1498252091.19,38343,18.69,73920.5,3.45,2.89,2.89,0,*70
1498252092.42,38344,18.75,73918.5,3.45,2.89,2.95,0,*7A
1498252093.62,38345,18.69,73912.0,3.45,2.95,2.95,0,*76
1498252094.82,38346,18.69,73932.0,3.45,2.95,2.95,0,*75
1498252096.06,38347,18.69,73942.0,3.49,3.03,2.99,0,*7A
1498252097.31,38348,18.69,73928.5,3.45,2.85,2.85,0,*7B
1498252098.56,38349,18.75,73922.5,3.45,2.77,2.77,0,*7A
1498252099.79,38350,18.69,73936.8,3.45,2.61,2.69,0,*7A
1498252101.04,38351,18.69,73924.3,3.45,2.69,2.69,0,*73
1498252102.29,38352,18.69,73920.8,3.45,2.39,2.47,0,*79
1498252103.52,38353,18.69,73924.0,3.43,2.39,2.39,0,*77
1498252104.75,38354,18.69,73922.5,3.45,2.27,2.25,0,*74
1498252105.98,38355,18.69,73922.0,3.43,2.05,2.01,0,*75
1498252107.2,38356,18.69,73920.5,3.43,1.93,1.89,0,*79
1498252108.46,38357,18.69,73926.8,3.41,1.89,1.85,0,*7D
1498252109.66,38358,18.69,73922.0,3.39,1.71,1.75,0,*75
1498252110.85,38359,18.69,73918.0,3.39,1.51,1.41,0,*71
1498252112.07,38360,18.69,73920.0,3.39,1.47,1.47,0,*7A
1498252113.32,38361,18.69,73924.3,3.37,1.71,1.71,0,*75
1498252114.52,38362,18.69,73924.8,3.35,1.83,1.71,0,*79
1498252115.7,38363,18.69,73928.0,3.35,1.83,1.83,0,*75
1498252116.93,38364,18.69,73912.5,3.35,1.93,1.97,0,*76
1498252118.17,38365,18.69,73906.3,3.35,2.17,2.09,0,*7C
1498252119.35,38366,18.69,73914.5,3.35,2.31,2.27,0,*77
1498252120.53,38367,18.69,73902.0,3.35,2.31,2.31,0,*71
1498252121.79,38368,18.69,73922.3,3.33,2.17,2.17,0,*78
1498252123.05,38369,18.69,73916.5,3.33,2.25,2.25,0,*79
1498252124.29,38370,18.75,73920.5,3.31,1.89,1.89,0,*73
1498252125.54,38371,18.69,73918.5,3.31,1.71,1.63,0,*71
1498252126.78,38372,18.69,73912.5,3.31,1.63,1.71,0,*72
1498252128.03,38373,18.69,73926.5,3.31,1.63,1.59,0,*79
1498252129.25,38374,18.69,73926.3,3.31,1.75,1.71,0,*73
1498252130.45,38375,18.69,73928.0,3.27,1.83,1.83,0,*71
1498252131.63,38376,18.69,73922.8,3.29,1.75,1.75,0,*7C
1498252132.87,38377,18.69,73926.3,3.27,1.93,1.93,0,*73
1498252134.12,38378,18.69,73924.8,3.27,1.97,1.97,0,*7C
1498252135.34,38379,18.69,73924.5,3.29,1.89,1.89,0,*73
1498252136.6,38380,18.69,73924.5,3.27,1.85,1.85,0,*7B